KUIPER-00230

导读

KUIPER-00230(NORAD编号68579)是亚马逊原柯伊伯(Project Kuiper,现更名为Amazon Leo)低轨卫星互联网星座的组网卫星之一,属于该星座一期组网部署的卫星。柯伊伯星座(Amazon Leo)一期计划部署3232颗卫星,旨在为全球网络覆盖不足地区提供高速低延迟卫星互联网服务,KUIPER-00230运行于近地轨道,是星座加速部署阶段入轨的卫星,将支撑后续全球宽带网络组网,服务个人消费、企业及政府等多类用户场景。

基本信息
目录编号:
68579
目录名称:
KUIPER-00230
国际标识:
2026-072G
轨道中心:
EARTH
卫星名称:
KUIPER-00230
卫星全名:
KUIPER-00230
卫星状态:
在轨 (已飞行164 天)
发射日期:
2026-04-04 UTC
国别 :
美国 (US)
星等 :
--
该卫星已列入 空间交会检测服务 Space Conjunction Data Service (SCDS) ,当前飞行风险评估等级: 无高风险
轨道信息
数据来源 国际轨道数据
星历时间: 2026-09-15T22:00:02+0800
9小时前
查看轨道信息
半长轴: 6982.618km
偏心率: 0.0006173
轨道倾角: 51.898°
近地点辐角 346.052°
升交点赤经 103.282°
平近点角 326.979°
近地点: 600.17km
远地点: 608.792km
周期: 96.780分钟
每日圈数: 14.879055
详细信息
使用方式:
暂无
2D轨道图
3D轨道图
轨道高度分析图
轨道倾角分析图
轨道综合分析图
查看轨道综合分析图
交会数据列表
事件ID 空间交会对象 最接近时刻(TCA) 交会距离 交会风险概率(CRP) 交会风险指数(CRI) 操作
CDM_260916-125902-682806-857921
2026-09-16T
12:59:04+0000
2.656 km
极远距离
1.556372E-6 低风险 0.39
与全量物体交会距离演化趋势 订阅飞行安全评估服务
与全量物体交会风险概率演化趋势 订阅飞行安全评估服务